Weather History for KDLS - May, 2013

Change the Weather History Date:

Friday, May 3, 2013

  Actual Average Record
Temperature  
Mean Temperature 63 °F -  
Max Temperature 82 °F 72 °F 92 °F (1966)
Min Temperature 44 °F 45 °F 32 °F (2007)
Degree Days  
Heating Degree Days 2    
Growing Degree Days 13 (Base 50)    
Moisture  
Dew Point 37 °F    
Average Humidity 43    
Maximum Humidity 76    
Minimum Humidity 17    
Precipitation  
Precipitation 0.00 in - - ()
Sea Level Pressure  
Sea Level Pressure 30.21 in    
Wind  
Wind Speed 2 mph (SSE)    
Max Wind Speed 8 mph    
Max Gust Speed -    
Visibility 10 miles    
Events      
Averages and records for this station are not official NWS values.
T = Trace of Precipitation, MM = Missing Value Source: NWS Daily Summary

Daily Weather History Graph

Daily Weather History Graph

Search for Another Location

Airport or City:

Trip Planner

Search our weather history database for the weather conditions in past years. The results will help you decide how hot, cold, wet, or windy it might be!

Date:

Astronomy

May. 03, 2013 Rise Set
Actual Time 5:49 AM PDT 8:14 PM PDT
Civil Twilight 5:15 AM PDT 8:48 PM PDT
Nautical Twilight 4:34 AM PDT 9:29 PM PDT
Astronomical Twilight 3:47 AM PDT 10:16 PM PDT
Moon 2:35 AM PDT (5/3) 1:57 PM PDT (5/3)
Length of Visible Light 15h 32m
Length of Day
14h 25m
Waning Crescent, 36% of the Moon is Illuminated
May 3
Waning Crescent
May 9
New
May 17
First Quarter
May 24
Full
May 31
Last Quarter

Hourly Weather History & Observations

Time (PDT) Temp. Windchill Dew Point Humidity Pressure Visibility Wind Dir Wind Speed Gust Speed Precip Events Conditions
12:53 AM 55.0 °F - 39.9 °F 57% 30.22 in 10.0 mi SSE 4.6 mph - N/A   Clear
1:53 AM 54.0 °F - 37.9 °F 55% 30.23 in 10.0 mi Calm Calm - N/A   Clear
2:53 AM 51.1 °F - 37.9 °F 61% 30.23 in 10.0 mi Calm Calm - N/A   Clear
3:53 AM 48.9 °F - 37.9 °F 66% 30.24 in 10.0 mi Calm Calm - N/A   Clear
4:53 AM 46.0 °F 43.9 °F 37.9 °F 73% 30.24 in 10.0 mi SE 4.6 mph - N/A   Clear
5:53 AM 44.1 °F 41.5 °F 37.0 °F 76% 30.25 in 10.0 mi South 4.6 mph - N/A   Clear
6:53 AM 50.0 °F - 39.0 °F 66% 30.28 in 10.0 mi East 3.5 mph - N/A   Clear
7:53 AM 54.0 °F - 39.9 °F 59% 30.30 in 10.0 mi Calm Calm - N/A   Clear
8:53 AM 57.9 °F - 41.0 °F 53% 30.30 in 10.0 mi Calm Calm - N/A   Clear
9:53 AM 63.0 °F - 39.9 °F 43% 30.30 in 10.0 mi Calm Calm - N/A   Clear
10:53 AM 68.0 °F - 39.0 °F 35% 30.29 in 10.0 mi Calm Calm - N/A   Clear
11:53 AM 71.1 °F - 37.0 °F 29% 30.27 in 10.0 mi Calm Calm - N/A   Clear
12:53 PM 75.0 °F - 35.1 °F 23% 30.24 in 10.0 mi SSW 4.6 mph - N/A   Clear
1:53 PM 78.1 °F - 35.1 °F 21% 30.21 in 10.0 mi NNE 4.6 mph - N/A   Clear
2:53 PM 79.0 °F - 35.1 °F 20% 30.18 in 10.0 mi Variable 3.5 mph - N/A   Clear
3:53 PM 81.0 °F - 35.1 °F 19% 30.16 in 10.0 mi WSW 3.5 mph - N/A   Clear
4:53 PM 82.0 °F - 33.1 °F 17% 30.14 in 10.0 mi Calm Calm - N/A   Clear
5:53 PM 80.1 °F - 33.1 °F 18% 30.12 in 10.0 mi Calm Calm - N/A   Clear
6:53 PM 81.0 °F - 34.0 °F 18% 30.11 in 10.0 mi Calm Calm - N/A   Clear
7:53 PM 72.0 °F - 39.9 °F 31% 30.10 in 10.0 mi NE 8.1 mph - N/A   Clear
8:53 PM 63.0 °F - 37.9 °F 40% 30.12 in 10.0 mi Variable 3.5 mph - N/A   Clear
9:53 PM 64.0 °F - 39.9 °F 41% 30.14 in 10.0 mi SW 5.8 mph - N/A   Clear
10:53 PM 59.0 °F - 39.0 °F 48% 30.15 in 10.0 mi Calm Calm - N/A   Clear
11:53 PM 55.0 °F - 37.9 °F 53% 30.15 in 10.0 mi East 6.9 mph - N/A   Clear